Location: Orinda
(37.8771°N, 122.1797°W)
Time: 01:41:41
(UTC+00:00)

Cosmos 44 Rocket - Pass Details

Date: 21 October 2019
Orbit: 657 x 733 km, 65.1° (Epoch: 13 November)

Event Time Altitude Azimuth Distance (km) Brightness Sun altitude
Exits shadow 13:11:28 - 331° (NNW) 2,634 6.0 -14.8°
Reaches altitude 10° 13:12:52 10° 333° (NNW) 2,082 5.5 -14.5°
Maximum altitude 13:17:35 76° 58° (ENE) 680 3.3 -13.6°
Drops below altitude 10° 13:22:15 10° 146° (SE) 2,062 6.3 -12.7°
Sets 13:24:33 0° 147° (SSE) 2,973 7.1 -12.2°
